Regional Weather Roundup
Issued by NWS Charleston, SC

Current Version | Previous Version | Graphics & Text | Print | Product List | Glossary On
Versions: 1 2 3 4 5 6 7 8 9 10 11 12 13 14 15 16 17 18 19 20 21 22 23 24 25 26 27 28 29 30 31 32 33 34 35 36 37 38 39 40 41 42 43 44 45 46 47 48 49 50
000 ASUS42 KCHS 012225 RWRCHS REGIONAL WEATHER ROUNDUP NATIONAL WEATHER SERVICE CHARLESTON SC 600 PM EDT MON SEP 01 2014 NOTE: "FAIR" INDICATES FEW OR NO CLOUDS BELOW 12,000 FEET WITH NO SIGNIFICANT WEATHER AND/OR OBSTRUCTIONS TO VISIBILITY. NOT ALL STATIONS ARE QUALITY CONTROLLED BY THE NATIONAL WEATHER SERVICE. USE DATA WITH CAUTION...ESPECIALLY DEWPOINT OBSERVATIONS. SCZ027-030-031-034>040-042>050-012300- ...SOUTH CAROLINA... CITY SKY/WX TMP DP RH WIND PRES REMARKS N CHARLESTON PTSUNNY 88 74 63 S10 30.07R HX 96 WATERFRONT PRK N/A 86 N/A N/A S12 N/A FORT JOHNSON NOT AVBL MOUNT PLEASANT FAIR 84 79 84 S8 30.07R HX 96 JOHNS ISLAND CLEAR 84 79 84 CALM 30.07R HX 96 PINOPOLIS N/A 90 75 62 S6 29.98R HX 100 MONCKS CORNER N/A 86 79 79 S3 30.07R HX 99 SUMMERVILLE DRIZZLE 81 75 83 SE3 30.07R BEAUFORT MCAS MOSUNNY 87 75 67 SW6 30.05S HX 96 BEAUFORT ARPT FAIR 84 73 70 SE5 30.05R HX 91 HILTON HEAD IS SUNNY 86 73 66 S6 30.06F HX 93 GEORGETOWN NOT AVBL WALTERBORO MOCLDY 81 81 100 NE3 30.06S HX 91 ORANGEBURG PTSUNNY 91 72 53 VRB5 30.04R HX 98 BARNWELL FAIR 93 72 49 S3 30.04R HX 100 AIKEN FAIR 91 73 55 CALM 30.07S HX 100 MANNING FAIR 90 73 58 S3 30.06R HX 98 KINGSTREE NOT AVBL COLUMBIA TSTM 87 69 54 W13 30.05R HX 91 SUMTER MOSUNNY 94 71 47 S8 30.02S HX 100 FLORENCE MOSUNNY 95 68 41 S12 30.03R HX 99 MYRTLE BEACH MOSUNNY 86 75 70 S12 30.06S HX 95 N MYRTLE BEACH MOSUNNY 85 76 74 S15 30.06S HX 94 $$ GAZ063-065-086>088-099>101-113>116-118-119-134-136>141-150-012300- ...GEORGIA... CITY SKY/WX TMP DP RH WIND PRES REMARKS SAVANNAH ARPT PTSUNNY 90 74 59 S8 30.04S THUNDER HX 99 HUNTER AAF SUNNY 88 76 66 SE8 30.03S HX 99 FORT STEWART MOSUNNY 91 76 60 E12 30.02F HX 102 STATESBORO NOT AVBL SYLVANIA PTCLDY 91 73 54 SE3 30.04S HX 99 CLAXTON NOT AVBL THOMSON PTSUNNY 81 81 100 CALM 30.09R HX 93 AUGUSTA-BUSH MOSUNNY 95 67 39 SE7 30.00F HX 99 AUGUSTA-DANIEL MOSUNNY 96 64 34 SE6 30.03F HX 98 SWAINSBORO FAIR 95 73 49 CALM 30.03S HX 105 VIDALIA N/A 91 72 52 SE3 30.03S THUNDER HX 98 ALMA MOSUNNY 92 70 48 CALM 30.02S HX 97 WAYCROSS MOSUNNY 94 78 59 SW9 30.03R HX 108 JESUP N/A 91 77 62 SE3 30.03R HX 105 BRUNSWICK SUNNY 90 72 55 SE12 30.05R HX 96 SAINT SIMONS SUNNY 87 74 64 SE14 30.04S HX 95 $$ SCZ027-028-034-036>038-045-046-048>050-GAZ119-141-012300- ...LAKE AND SUPPLEMENTAL COASTAL OBSERVATIONS... STATION/POSITION TIME TEMP WIND PRES WAVE SWELL AIR SEA DIR/SP/G HT/PER HT/PER/DIR (UTC) (F) (DEG/KT/KT) (MB) (FT/S) (FT/S/D) UPR LAKE MARION NOT AVBL WINYAH BAY 2200 84 170/ 7 1018.0S LAKE MURRAY 2100 89 350/ 2/ 6 1015.9F ACE BASIN NERRS 2200 86 160/ 1 1018.0S FORT PULASKI 2200 86 130/ 6/ 9 1017.8S SAPELO ISLAND 2200 90 140/ 9 1018.0S $$ ANZ835-935-AMZ111-154-330-350-352-354-374-450-454-472-012300- ...C-MAN AND BUOY OBSERVATIONS... STATION/POSITION TIME TEMP WIND PRES WAVE SWELL AIR SEA DIR/SP/G HT/PER HT/PER/DIR (UTC) (F) (DEG/KT/KT) (MB) (FT/S) (FT/S/D) FOLLY BEACH CMAN 2200 84 160/ 9/ 10 1018.5R BUOY 41004 2200 83 85 160/ 10/ 10 1018.0S 2/ 9 2/ 9 BUOY 41008 2200 84 87 150/ 10/ 12 1017.5F 2/ 9 2/110/ 9 5E ST. MARYS GA 2200 86 N/A 2/ 9 FRYING PAN BUOY NOT AVBL BUOY 41025 2200 82 200/ 16/ 17 1017.8S 3/ 8 2/130/ 8 CAPE LOOKOUT NC 2200 83 200/ 11/ 14 1017.7F BUOY 41002 2142 82 85 190/ 6/ 8 1020.1F 3/ 8 3/110/ 8 BUOY 41010 2200 83 86 100/ 4/ 6 1018.9F 2/ 8 2/ 80/ 8 BUOY 41012 NOT AVBL ST AUGUSTINE FL 2200 84 130/ 10/ 11 1018.3F CAPERS NEARSHORE 2100 84 170/ 10/ 12 N/A FRIPP NEARSHORE NOT AVBL $$

USA.gov is the U.S. government's official web portal to all federal, state and local government web resources and services.